Vitoria, Spain

11:49 PM CEST on August 17, 2017 (GMT +0200)
Foronda

Weather History for LEVT - September, 2013

Change the Weather History Date:

Friday, September 27, 2013

  Actual Average Record
Temperature  
Mean Temperature 70 °F -  
Max Temperature 86 °F 66 °F 86 °F (2013)
Min Temperature 53 °F 45 °F 33 °F (2002)
Cooling Degree Days 4    
Growing Degree Days 20 (Base 50)    
Moisture  
Dew Point 54 °F    
Average Humidity 63    
Maximum Humidity 94    
Minimum Humidity 29    
Precipitation  
Precipitation 0.00 in - - ()
Sea Level Pressure  
Sea Level Pressure 29.85 in    
Wind  
Wind Speed 3 mph ()    
Max Wind Speed 14 mph    
Max Gust Speed -    
Visibility 6.2 miles    
Events      
Averages and records for this station are not official NWS values.
T = Trace of Precipitation, MM = Missing Value Source: Averaged Metar Reports

Daily Weather History Graph

Daily Weather History Graph

Search for Another Location

Airport or City:

Trip Planner

Search our weather history database for the weather conditions in past years. The results will help you decide how hot, cold, wet, or windy it might be!

Date:

Astronomy

Sep. 27, 2013 Rise Set
Actual Time 8:03 AM CEST 7:59 PM CEST
Civil Twilight 7:35 AM CEST 8:27 PM CEST
Nautical Twilight 7:02 AM CEST 9:00 PM CEST
Astronomical Twilight 6:29 AM CEST 9:33 PM CEST
Moon 12:39 AM CEST (9/27) 3:35 PM CEST (9/27)
Length of Visible Light 12h 51m
Length of Day
11h 55m
Waning Gibbous, 48% of the Moon is Illuminated
Sep 27
Waning Gibbous
Oct 5
New
Oct 12
First Quarter
Oct 19
Full
Oct 27
Last Quarter

Hourly Weather History & Observations

Time (CEST) Temp. Heat Index Dew Point Humidity Pressure Visibility Wind Dir Wind Speed Gust Speed Precip Events Conditions
12:00 AM 59.0 °F - 53.6 °F 82% 29.92 in - Calm Calm - N/A   Clear
12:30 AM 57.2 °F - 51.8 °F 82% 29.92 in - Calm Calm - N/A   Clear
1:00 AM 57.2 °F - 53.6 °F 88% 29.89 in - Calm Calm - N/A   Clear
1:30 AM 57.2 °F - 51.8 °F 82% 29.89 in - Calm Calm - N/A   Clear
2:00 AM 57.2 °F - 53.6 °F 88% 29.89 in - Calm Calm - N/A   Clear
3:00 AM 53.6 °F - 51.8 °F 94% - - Calm Calm - N/A   Clear
3:30 AM 55.4 °F - 51.8 °F 88% 29.89 in - Calm Calm - N/A   Clear
4:00 AM 55.4 °F - 51.8 °F 88% 29.89 in - Calm Calm - N/A   Clear
4:30 AM 55.4 °F - 51.8 °F 88% 29.89 in - Calm Calm - N/A   Clear
5:00 AM 57.2 °F - 53.6 °F 88% 29.89 in - West 1.2 mph - N/A   Clear
5:30 AM 57.2 °F - 53.6 °F 88% 29.89 in - Variable 1.2 mph - N/A   Clear
6:00 AM 57.2 °F - 55.4 °F 94% 29.89 in - Calm Calm - N/A   Clear
6:30 AM 57.2 °F - 55.4 °F 94% 29.89 in - Variable 1.2 mph - N/A   Clear
7:00 AM 59.0 °F - 55.4 °F 88% 29.89 in - Calm Calm - N/A   Clear
7:30 AM 60.8 °F - 57.2 °F 88% 29.89 in - Calm Calm - N/A   Clear
8:00 AM 59.0 °F - 55.4 °F 88% 29.89 in - Variable 1.2 mph - N/A   Clear
8:30 AM 59.0 °F - 57.2 °F 94% 29.89 in - Variable 1.2 mph - N/A   Clear
9:00 AM 60.8 °F - 57.2 °F 88% 29.89 in - Calm Calm - N/A   Clear
9:30 AM 60.8 °F - 59.0 °F 94% 29.89 in - Calm Calm - N/A   Clear
10:00 AM 64.4 °F - 60.8 °F 88% 29.89 in - WNW 1.2 mph - N/A   Clear
10:30 AM 68.0 °F - 60.8 °F 78% 29.89 in - Calm Calm - N/A   Clear
11:00 AM 71.6 °F - 59.0 °F 64% 29.89 in - NW 1.2 mph - N/A   Clear
11:30 AM 75.2 °F - 59.0 °F 57% 29.89 in - SW 10.4 mph - N/A   Clear
12:00 PM 73.4 °F - 59.0 °F 61% 29.89 in - WSW 11.5 mph - N/A   Clear
12:30 PM 73.4 °F - 59.0 °F 61% 29.89 in 6.2 mi WSW 5.8 mph - N/A   Partly Cloudy
1:00 PM 77.0 °F - 59.0 °F 54% 29.89 in 6.2 mi West 8.1 mph - N/A   Partly Cloudy
1:30 PM 78.8 °F - 59.0 °F 51% 29.86 in 6.2 mi SW 5.8 mph - N/A   Partly Cloudy
2:00 PM 80.6 °F 81.1 °F 59.0 °F 48% 29.86 in 6.2 mi Variable 2.3 mph - N/A   Partly Cloudy
2:30 PM 80.6 °F 80.8 °F 57.2 °F 45% 29.83 in 6.2 mi South 6.9 mph - N/A   Partly Cloudy
3:00 PM 82.4 °F 81.7 °F 55.4 °F 39% 29.83 in 6.2 mi South 8.1 mph - N/A   Partly Cloudy
3:30 PM 84.2 °F 83.0 °F 55.4 °F 37% 29.83 in 6.2 mi SSE 13.8 mph - N/A   Partly Cloudy
4:00 PM 86.0 °F 84.2 °F 53.6 °F 33% 29.83 in 6.2 mi SSE 12.7 mph - N/A   Partly Cloudy
4:30 PM 86.0 °F - 50.0 °F 29% 29.80 in 6.2 mi South 12.7 mph - N/A   Partly Cloudy
5:00 PM 84.2 °F - 50.0 °F 30% 29.80 in 6.2 mi South 11.5 mph - N/A   Partly Cloudy
5:30 PM 84.2 °F - 50.0 °F 30% 29.80 in 6.2 mi South 10.4 mph - N/A   Partly Cloudy
6:00 PM 80.6 °F - 48.2 °F 32% 29.80 in 6.2 mi South 10.4 mph - N/A   Partly Cloudy
6:30 PM 80.6 °F - 48.2 °F 32% 29.80 in 6.2 mi SSE 9.2 mph - N/A   Partly Cloudy
7:00 PM 80.6 °F - 48.2 °F 32% 29.77 in 6.2 mi SSE 9.2 mph - N/A   Partly Cloudy
7:30 PM 78.8 °F - 50.0 °F 36% 29.77 in 6.2 mi SSE 6.9 mph - N/A   Partly Cloudy
8:00 PM 77.0 °F - 48.2 °F 36% 29.77 in 6.2 mi SSE 9.2 mph - N/A   Partly Cloudy
8:30 PM 75.2 °F - 48.2 °F 38% 29.77 in 6.2 mi South 8.1 mph - N/A   Partly Cloudy
9:00 PM 75.2 °F - 46.4 °F 36% 29.77 in 6.2 mi South 9.2 mph - N/A   Partly Cloudy
9:30 PM 75.2 °F - 46.4 °F 36% 29.80 in 6.2 mi SSE 9.2 mph - N/A   Partly Cloudy
10:00 PM 75.2 °F - 48.2 °F 38% 29.77 in 6.2 mi South 8.1 mph - N/A   Partly Cloudy
10:30 PM 73.4 °F - 48.2 °F 41% 29.77 in 6.2 mi SW 8.1 mph - N/A   Partly Cloudy
11:00 PM 68.0 °F - 51.8 °F 56% 29.77 in 6.2 mi SSW 6.9 mph - N/A   Partly Cloudy
11:30 PM 64.4 °F - 51.8 °F 64% 29.77 in 6.2 mi SSW 4.6 mph - N/A   Partly Cloudy